Location: ??????
(55.9972°N, 38.9340°E)
Time: 12:27:28
(UTC+00:00)

Daily predictions for brighter satellites

Satellite Brightness Start Highest point End
(mag) Time Altitude Azimuth Time Altitude Azimuth Time Altitude Azimuth
ATLAS 5 CENTAUR R/B 4.2 13:32:41 10° WNW 13:37:07 33° SW 13:42:25 10° S
SMAP 3.6 13:35:06 10° SE 13:39:20 36° ENE 13:43:35 10° N
Cosmos 1606 Rocket 4.2 13:35:28 10° SSE 13:39:35 38° E 13:43:42 10° NNE
Tsikada Rocket 4.2 13:34:58 10° SSE 13:40:58 52° E 13:46:55 10° NNE
Cosmos 2082 Rocket 3.9 13:37:42 10° NW 13:41:38 19° NNW 13:45:35 10° NNE
Cosmos 1726 Rocket 4.4 13:37:54 10° SSE 13:41:50 32° E 13:45:46 10° NNE
SL-27 R/B 4.3 13:41:42 10° W 13:44:13 21° NW 13:46:44 10° N
Cosmos 2263 Rocket 3.8 13:41:59 10° SE 13:45:08 15° E 13:48:17 10° ENE
Cosmos 1825 Rocket 3.5 13:41:41 10° N 13:46:02 76° ENE 13:50:21 10° SSE
Cosmos 2227 Rocket 2.8 13:41:39 10° S 13:46:49 38° ESE 13:52:01 10° NE
USA 306 2.6 13:44:42 10° W 13:46:55 38° SSW 13:49:00 10° ESE
ATLAS 2AS CENTAUR R/B 3.1 13:40:55 10° WNW 13:47:51 47° N 13:54:26 10° E
Cosmos 1500 4.0 13:45:13 10° N 13:48:17 26° ENE 13:51:19 10° SE
Cosmos 2298 Rocket 4.4 13:45:18 10° S 13:50:25 50° ESE 13:55:34 10° NE
Cosmos 1437 Rocket 3.0 13:47:07 10° N 13:50:40 42° ENE 13:54:14 10° SE
Meteor 2-21 4.5 13:44:42 10° S 13:50:48 72° E 13:57:00 10° NNE
SJ-11-01 4.2 13:47:32 10° SSE 13:52:08 68° ENE 13:56:47 10° NNW
Cosmos 1603 4.4 13:47:08 10° NNW 13:52:22 34° NE 13:57:32 10° ESE
SL-16 R/B 3.0 13:47:29 10° NNE 13:53:44 66° WNW 13:59:55 10° SW
Cosmos 1869 3.1 13:50:22 10° S 13:54:08 77° E 13:57:55 10° NNE
H-2A R/B 3.5 13:49:41 10° SSW 13:54:28 40° W 13:59:11 10° NNW
CZ-2D R/B 3.1 13:51:07 10° SSE 13:54:45 62° ENE 13:58:24 10° N
UNK 4.3 13:50:21 10° N 13:54:53 59° WNW 13:59:25 10° SSW
Cosmos 2151 3.3 13:51:19 10° N 13:55:27 45° ENE 13:59:33 10° SE
RESURS DK-1 4.1 13:52:51 10° NNW 13:55:27 16° NNE 13:57:53 11° ENE
CORIOLIS 4.3 13:51:31 10° SE 13:56:41 51° ENE 14:01:54 10° N
Cosmos 2251 Rocket 4.3 13:52:28 10° NNW 13:57:12 31° NE 14:01:56 10° ESE
Cosmos 2228 3.2 13:54:36 10° SSW 13:58:57 76° WNW 14:03:18 10° N
Cosmos 1238 Rocket 2.6 13:57:23 10° S 14:00:58 52° E 14:04:06 10° NNE
Cosmos 407 Rocket 4.2 13:57:53 10° NNW 14:02:30 30° NE 14:07:03 10° ESE
CZ-2C R/B 2.5 14:01:54 10° SSE 14:05:25 65° ENE 14:09:00 10° N
CZ-4B R/B 4.0 14:01:25 10° SE 14:05:59 36° ENE 14:10:28 10° N
SL-16 R/B 2.4 14:00:25 10° NW 14:06:09 82° WSW 14:11:49 10° SSE
YAOGAN 1 4.2 14:05:16 11° E 14:07:27 14° NE 14:09:47 10° NNE
Helios 1B rocket 2.4 14:04:23 10° SSE 14:08:19 85° WSW 14:12:18 10° NNW
ARGOS 3.9 14:04:38 10° S 14:10:00 60° WSW 14:15:24 10° NNW
CZ-4B R/B 3.8 14:07:25 10° SE 14:10:52 46° ENE 14:14:24 10° N
CZ-2C R/B 3.7 14:10:21 10° N 14:15:26 44° WNW 14:20:22 10° SW
Lacrosse 4 Rocket 1.8 14:12:21 10° NW 14:16:37 47° NE 14:20:47 10° ESE
Radarsat Rocket 4.3 14:11:24 10° SE 14:16:51 42° NE 14:22:38 10° NNW
Cosmos 1634 Rocket 4.2 14:11:55 10° NNW 14:18:15 82° W 14:24:34 10° S
Cosmos 1943 3.3 14:14:40 10° NNW 14:20:13 55° NE 14:25:46 10° SE
Meteor 1-31 Rocket 2.6 14:18:02 10° SSE 14:21:39 58° ENE 14:25:21 10° N
USA 305 3.1 14:18:16 10° W 14:22:01 59° SSW 14:25:49 10° ESE
NOSS 3-4 (A) 4.5 14:16:27 10° NW 14:23:03 60° SW 14:30:38 10° SSE
NOSS 3-4 (C) 4.5 14:16:36 10° NW 14:23:09 59° SW 14:30:38 10° SSE
Cosmos 1269 Rocket 4.2 14:18:15 10° NNW 14:23:35 82° WSW 14:28:52 10° SSE
NOSS 3-3 (C) 4.0 14:22:13 10° SW 14:27:56 79° SE 14:33:37 15° NE
NOSS 3-3 (A) 3.9 14:22:36 10° SW 14:28:18 80° SE 14:33:58 15° NE
Cosmos 2084 3.9 14:24:43 10° W 14:28:26 44° NNW 14:30:59 17° NE
Meteor 2-16 Rocket 4.4 14:23:47 10° S 14:29:55 85° E 14:36:05 10° NNE
Cosmos 1544 2.8 14:26:43 10° NNW 14:30:00 84° WSW 14:33:15 10° S
Cosmos 1076 Rocket 3.4 14:26:30 10° N 14:30:53 77° ENE 14:35:14 10° SSE
Cosmos 2142 Rocket 4.4 14:25:11 10° N 14:31:22 81° ENE 14:37:31 10° SSE
ADEOS Rocket 4.3 14:31:37 15° NE 14:32:33 16° NE 14:35:53 10° N
USA 234 4.2 14:28:58 15° E 14:33:34 31° SE 14:39:16 10° SSW
Cosmos 2297 Rocket 2.4 14:29:12 10° SW 14:34:51 75° NW 14:40:14 12° NNE
Cosmos 2219 3.4 14:31:19 10° S 14:36:45 54° ESE 14:41:13 16° NE
Cosmos 1953 Rocket 4.2 14:32:33 10° NNW 14:36:59 59° W 14:41:21 10° S
ATLAS CENTAUR R/B 2.7 14:33:35 10° WNW 14:37:10 64° SSW 14:43:55 10° SE
ADEOS 4.0 14:34:10 10° SE 14:38:56 38° ENE 14:43:44 10° N
Meteor 1-25 Rocket 4.5 14:33:48 10° N 14:39:18 45° ENE 14:44:40 10° SE
Cosmos 44 4.1 14:33:57 10° NW 14:39:18 59° SW 14:44:27 10° SSE
DMSP B5D2-2 4.1 14:34:14 10° NNE 14:39:25 64° ESE 14:44:36 10° S
Cosmos 1125 Rocket 4.0 14:36:00 10° SW 14:41:10 58° NW 14:46:24 10° NNE
Cosmos 1023 Rocket 4.4 14:36:55 10° NNW 14:42:06 63° ENE 14:47:11 10° SE
ERS-2 4.4 14:42:38 10° SSW 14:45:01 22° W 14:47:26 10° NW
Aureole 3 Rocket 4.4 14:40:17 10° NNW 14:45:34 47° W 14:49:26 10° SSW
Cosmos 2279 Rocket 4.2 14:40:12 10° NNW 14:46:28 77° W 14:52:41 10° S
Cosmos 1602 3.5 14:43:19 10° N 14:47:02 65° ENE 14:50:44 10° SSE
SL-24 R/B - RUBIN 2 4.3 14:41:43 10° SW 14:47:20 87° NW 14:51:59 19° NE
Cosmos 1666 2.4 14:48:49 10° NNW 14:52:23 88° E 14:55:55 10° SSE
Cosmos 2082 4.0 14:48:50 10° S 14:54:11 48° ESE 14:57:35 22° NE
USA 307 3.8 14:52:41 10° W 14:56:20 40° SSW 14:59:25 13° SE
Cosmos 1833 Rocket 3.9 14:53:10 10° NNW 14:57:40 23° NNE 14:59:09 21° NE
COSMO-SKYMED 1 3.4 14:57:28 28° E 14:57:59 29° E 15:01:47 10° SSE
AQUARIUS 4.4 14:54:35 10° S 14:59:02 71° WSW 15:03:32 10° NNW
ISS -1.4 14:56:45 10° WSW 14:59:24 21° SSW 15:02:02 10° SSE
Meteor PRIRODA 3.8 15:03:58 40° ENE 15:03:58 40° ENE 15:07:03 10° N
Cosmos 2058 Rocket 3.1 14:59:31 10° SSW 15:03:58 86° W 15:08:25 10° NNE
Cosmos 1606 4.4 15:01:58 10° SW 15:05:14 30° WNW 15:08:31 10° N
YAOGAN 11 4.4 15:01:31 10° NNE 15:06:02 74° WNW 15:10:34 10° SSW
Cosmos 1140 Rocket 3.4 15:03:08 10° NNW 15:08:23 88° ENE 15:13:34 10° SSE
Cosmos 1092 Rocket 4.5 15:02:57 10° SSE 15:08:24 35° E 15:13:53 10° NNE
Helios 1A 3.1 15:07:54 30° NE 15:09:37 49° E 15:13:39 10° S
CBERS 1 LM4 rocket 4.2 15:05:54 10° SSE 15:10:44 82° ENE 15:15:29 10° NNW
Nadezhda 4 Rocket 3.9 15:05:47 10° S 15:11:48 60° E 15:17:49 10° NNE
CZ-4 R/B 3.7 15:15:47 11° N 15:15:47 11° N 15:16:01 10° N
Cosmos 405 Rocket 3.3 15:09:55 10° SSW 15:13:40 57° WNW 15:17:04 13° N
Meteor 1-20 Rocket 4.1 15:09:54 10° NNW 15:15:28 85° ENE 15:21:06 10° SSE
SMAP 4.4 15:12:13 10° S 15:16:39 42° W 15:21:06 10° NNW
CZ-4B R/B 3.9 15:18:55 32° ENE 15:19:19 32° NE 15:24:14 10° N
Meteor 1-5 Rocket 4.4 15:15:57 10° N 15:21:22 48° ENE 15:26:57 10° SE
USA 306 4.4 15:20:46 10° WSW 15:21:42 12° SSW 15:22:12 11° SSW
EO 1 Delta rocket 4.5 15:18:03 10° SE 15:24:26 53° ENE 15:29:35 10° N
CZ-4B R/B 3.1 15:23:15 38° ESE 15:24:31 52° ENE 15:28:38 10° N
Cosmos 676 Rocket 4.3 15:19:35 10° NNW 15:24:42 44° NE 15:25:43 39° E
Cosmos-2242 2.9 15:22:37 10° S 15:26:55 64° E 15:28:20 39° NNE
Cosmos 2082 Rocket 3.7 15:23:46 10° NNW 15:27:52 20° NNE 15:28:33 20° NNE
Cosmos 2263 Rocket 2.1 15:22:32 10° SSW 15:28:03 69° ESE 15:30:32 34° NE
NOAA 6 4.1 15:23:02 10° SSE 15:28:11 79° WSW 15:33:21 10° NNW
Cosmos 220 Rocket 4.0 15:23:57 10° NNW 15:28:14 55° NE 15:28:34 53° ENE
Cosmos 1844 Rocket 4.5 15:25:58 10° SSE 15:27:12 15° SE 15:27:12 15° SE
Cosmos 2227 Rocket 2.7 15:25:10 10° SW 15:30:45 56° NW 15:34:28 21° NNE
RESURS DK-1 3.0 15:30:19 10° NNW 15:33:35 39° NNE 15:33:35 39° NNE
Cosmos 1428 Rocket 4.5 15:28:40 10° S 15:34:50 60° E 15:41:00 10° NNE
Cosmos 1603 3.8 15:31:18 10° NW 15:37:02 76° WSW 15:42:40 10° SSE
ATLAS 2AS CENTAUR R/B 2.6 15:32:30 10° NW 15:39:36 79° NE 15:42:49 34° ESE
Cosmos 2251 Rocket 3.8 15:34:37 10° NNW 15:39:57 71° WSW 15:45:17 10° SSE
YAOGAN 1 2.4 15:42:20 65° ESE 15:42:45 70° ENE 15:47:03 10° NNW
CZ-4B R/B 4.4 15:39:39 10° S 15:44:33 48° W 15:49:23 10° NNW
Cosmos 407 Rocket 3.7 15:39:45 10° NNW 15:44:56 69° WSW 15:50:01 10° SSE
YAOGAN 3 4.4 15:41:09 10° SSE 15:45:29 87° ENE 15:49:51 10° NNW
SKYMED 2 3.4 15:46:05 71° ENE 15:46:18 74° ESE 15:50:39 10° S
Cosmos 1812 2.9 15:44:48 10° SSW 15:47:52 60° SSW 15:47:52 60° SSW
Cosmos 724 4.3 15:44:15 10° SW 15:50:27 86° SE 15:52:30 45° NE
NOAA 15 4.5 15:46:46 10° SSE 15:52:05 82° ENE 15:57:25 10° NNW
Lacrosse 4 Rocket 2.8 15:50:56 10° NW 15:55:00 38° WSW 15:58:24 13° S
USA 305 4.4 15:53:16 10° W 15:56:29 26° SSW 15:57:19 24° SSW
Cosmos 44 Rocket 4.1 15:52:37 10° NW 15:57:24 40° NNE 15:57:24 40° NNE
Cosmos 1954 Rocket 3.8 15:52:38 10° NNW 15:57:58 77° ENE 15:58:42 64° ESE
Meteor 2-2 Rocket 4.1 15:55:23 10° S 16:01:10 82° E 16:04:34 27° NNE
Meteor 2-17 Rocket 4.3 15:57:08 10° S 16:03:15 73° E 16:07:09 24° NNE
Cosmos 1943 4.5 15:58:58 10° NW 16:04:09 39° WSW 16:09:21 10° S
Cosmos 2344 3.6 15:57:58 10° SSW 16:05:05 52° SE 16:06:06 49° E
IGS 5A 3.9 16:08:09 56° NW 16:08:09 56° NW 16:11:34 10° NNW
Cosmos 1607 4.1 16:01:49 10° WSW 16:08:13 74° NW 16:10:13 46° NE
CZ-4B DEB 4.2 16:07:06 12° SSE 16:12:13 82° WSW 16:17:49 10° NNW
BREEZE-M DEB (TANK) 4.4 16:08:30 10° WSW 16:13:29 74° S 16:19:21 39° E
Cosmos 1190 Rocket 4.3 16:08:30 10° NNW 16:13:48 68° WSW 16:15:52 37° S
SL-08 R/B 3.8 16:15:08 49° SSW 16:15:08 49° SSW 16:18:31 10° SSW
Cosmos 1812 Rocket 3.9 16:10:47 10° SSW 16:15:05 61° WNW 16:15:10 60° WNW
ADEOS Rocket 3.5 16:18:33 40° NNE 16:18:33 40° NNE 16:22:32 10° NNW
USA 234 3.2 16:16:19 60° ESE 16:17:21 69° SSE 16:23:53 10° WSW
ADEOS 4.5 16:13:20 10° S 16:18:23 48° W 16:23:26 10° NNW
Cosmos 2297 Rocket 3.8 16:15:02 10° W 16:19:49 27° NNW 16:22:01 21° N
Cosmos 2219 4.1 16:15:45 10° WSW 16:21:06 43° NW 16:23:08 31° N
Cosmos 1553 Rocket 3.9 16:16:25 10° NNW 16:22:49 88° ENE 16:25:40 36° SSE
PAYLOAD B 4.2 16:27:47 65° S 16:28:36 80° WSW 16:34:12 10° NNW
COSMO-SKYMED 1 3.6 16:34:42 44° W 16:34:42 44° W 16:38:28 10° SW
Cosmos 2082 4.5 16:32:57 10° WSW 16:38:22 47° NW 16:39:27 42° NNW
Cosmos 2026 Rocket 4.2 16:34:00 10° SSW 16:40:15 69° WNW 16:46:38 10° N
Cosmos 1833 Rocket 3.6 16:37:11 10° NNW 16:40:50 38° N 16:40:50 38° N
Lacrosse 5 4.4 16:45:28 10° SSW 16:45:42 11° SSW 16:45:42 11° SSW
Cosmos 1092 Rocket 4.5 16:47:32 10° SSW 16:53:33 56° WNW 16:59:06 12° N
CZ-4B R/B 3.9 17:00:48 52° NW 17:00:48 52° NW 17:05:12 10° NNW
Cosmos 2263 Rocket 3.4 17:07:17 10° WSW 17:12:14 36° NW 17:12:14 36° NW
Cosmos 2082 Rocket 4.0 17:08:08 10° NNW 17:10:23 23° NNW 17:10:23 23° NNW
Cosmos 2227 Rocket 4.0 17:11:31 10° WNW 17:16:00 23° NNW 17:16:17 23° NNW
ATLAS 2AS CENTAUR R/B 3.7 17:23:49 10° WNW 17:30:05 38° WSW 17:30:17 38° SW
CENTAUR R/B 4.3 23:50:13 32° NE 23:50:13 32° NE 23:54:48 10° ENE
